When you browse on this site, cookies collect data to enhance your experience and personalize the content and advertising you see.
Visit our Privacy Policy to learn more. By continuing to use the site, you agree to this use of cookies and data.

Hourly Weather Hajfong

Today, 5 July, Sunday

Time Temperature Precipitation Wind Pressure Humidity
00:00 +30°C° 1 mm 3 mps 754 mmHg 84%
01:00 +30°C° 0 mm 2 mps 753 mmHg 86%
02:00 +30°C° 0.2 mm 2 mps 753 mmHg 86%
03:00 +30°C° 0.2 mm 2 mps 752 mmHg 86%
04:00 +30°C° 0.2 mm 3 mps 752 mmHg 86%
05:00 +30°C° 0.3 mm 3 mps 752 mmHg 84%
06:00 +32°C° 0.3 mm 4 mps 752 mmHg 81%
07:00 +32°C° 0.3 mm 4 mps 753 mmHg 79%
08:00 +33°C° 1 mm 5 mps 753 mmHg 75%
09:00 +34°C° 1 mm 5 mps 753 mmHg 71%
10:00 +35°C° 1 mm 5 mps 753 mmHg 67%
11:00 +35°C° 0.4 mm 5 mps 752 mmHg 65%
12:00 +36°C° 0.4 mm 5 mps 751 mmHg 64%
13:00 +36°C° 0.4 mm 6 mps 751 mmHg 62%
14:00 +36°C° 0 mm 6 mps 750 mmHg 64%
15:00 +35°C° 0 mm 6 mps 750 mmHg 65%
16:00 +35°C° 0 mm 6 mps 749 mmHg 67%
17:00 +34°C° 0 mm 5 mps 749 mmHg 71%
18:00 +33°C° 0 mm 5 mps 749 mmHg 75%
19:00 +32°C° 0 mm 4 mps 750 mmHg 79%
20:00 +32°C° 0 mm 4 mps 750 mmHg 80%
21:00 +32°C° 0 mm 4 mps 751 mmHg 81%
22:00 +32°C° 0 mm 4 mps 752 mmHg 82%
23:00 +30°C° 0.4 mm 4 mps 751 mmHg 83%

Tomorrow, 6 July, Monday

Time Temperature Precipitation Wind Pressure Humidity
00:00 +30°C° 0.4 mm 4 mps 751 mmHg 84%
01:00 +30°C° 0.4 mm 4 mps 751 mmHg 85%
02:00 +30°C° 0.1 mm 4 mps 751 mmHg 85%
03:00 +30°C° 0.1 mm 5 mps 750 mmHg 85%
04:00 +30°C° 0.1 mm 5 mps 750 mmHg 85%
05:00 +32°C° 0.8 mm 5 mps 751 mmHg 83%
06:00 +32°C° 0.8 mm 5 mps 751 mmHg 82%
07:00 +32°C° 0.8 mm 6 mps 751 mmHg 81%
08:00 +33°C° 0.8 mm 6 mps 751 mmHg 78%
09:00 +34°C° 0.8 mm 6 mps 752 mmHg 75%
10:00 +35°C° 0.8 mm 7 mps 752 mmHg 72%
11:00 +35°C° 0.2 mm 7 mps 751 mmHg 70%
12:00 +35°C° 0.2 mm 7 mps 751 mmHg 68%
13:00 +36°C° 0.2 mm 7 mps 751 mmHg 65%
14:00 +35°C° 0 mm 6 mps 750 mmHg 67%
15:00 +35°C° 0 mm 6 mps 750 mmHg 68%
16:00 +35°C° 0 mm 6 mps 749 mmHg 69%
17:00 +34°C° 0 mm 5 mps 749 mmHg 74%
18:00 +33°C° 0 mm 5 mps 750 mmHg 78%
19:00 +32°C° 0 mm 4 mps 750 mmHg 82%
20:00 +32°C° 0 mm 4 mps 751 mmHg 83%
21:00 +32°C° 0 mm 4 mps 752 mmHg 84%
22:00 +32°C° 0 mm 4 mps 752 mmHg 85%
23:00 +32°C° 0.5 mm 4 mps 752 mmHg 85%

Day after tomorrow, 7 July, Tuesday

Time Temperature Precipitation Wind Pressure Humidity
00:00 +32°C° 0.5 mm 4 mps 752 mmHg 85%
01:00 +30°C° 0.5 mm 5 mps 752 mmHg 85%
02:00 +30°C° 0.5 mm 5 mps 752 mmHg 85%
03:00 +30°C° 0.5 mm 5 mps 752 mmHg 85%
04:00 +30°C° 0.5 mm 5 mps 751 mmHg 86%
05:00 +32°C° 0.3 mm 5 mps 752 mmHg 84%
06:00 +32°C° 0.3 mm 5 mps 752 mmHg 83%
07:00 +33°C° 0.3 mm 5 mps 753 mmHg 81%
08:00 +34°C° 0.3 mm 5 mps 753 mmHg 77%
09:00 +35°C° 0.3 mm 5 mps 753 mmHg 72%
10:00 +36°C° 0.3 mm 5 mps 753 mmHg 68%
11:00 +36°C° 0 mm 5 mps 752 mmHg 65%
12:00 +37°C° 0 mm 5 mps 752 mmHg 62%
13:00 +37°C° 0 mm 5 mps 751 mmHg 60%
14:00 +37°C° 0 mm 5 mps 751 mmHg 61%
15:00 +36°C° 0 mm 5 mps 750 mmHg 63%
16:00 +36°C° 0 mm 5 mps 750 mmHg 64%
17:00 +35°C° 0 mm 5 mps 750 mmHg 70%
18:00 +34°C° 0 mm 4 mps 750 mmHg 75%
19:00 +32°C° 0 mm 4 mps 750 mmHg 81%
20:00 +32°C° 0.2 mm 5 mps 751 mmHg 81%
21:00 +32°C° 0.2 mm 5 mps 752 mmHg 82%
22:00 +32°C° 0.2 mm 5 mps 752 mmHg 82%
23:00 +32°C° 0.3 mm 6 mps 752 mmHg 82%

8 July, Wednesday

Time Temperature Precipitation Wind Pressure Humidity
00:00 +32°C° 0.3 mm 6 mps 752 mmHg 81%
01:00 +32°C° 0.3 mm 6 mps 752 mmHg 80%
02:00 +32°C° 0 mm 6 mps 751 mmHg 80%
03:00 +32°C° 0 mm 6 mps 751 mmHg 81%
04:00 +32°C° 0 mm 6 mps 751 mmHg 82%
05:00 +32°C° 0 mm 6 mps 751 mmHg 80%
06:00 +33°C° 0 mm 6 mps 751 mmHg 77%
07:00 +33°C° 0 mm 5 mps 752 mmHg 75%
08:00 +34°C° 0 mm 5 mps 752 mmHg 69%
09:00 +36°C° 0 mm 6 mps 752 mmHg 63%
10:00 +38°C° 0 mm 6 mps 752 mmHg 57%
11:00 +39°C° 0 mm 6 mps 751 mmHg 55%
12:00 +39°C° 0 mm 6 mps 750 mmHg 53%
13:00 +40°C° 0 mm 6 mps 750 mmHg 51%
14:00 +39°C° 0 mm 6 mps 749 mmHg 53%
15:00 +39°C° 0 mm 6 mps 749 mmHg 55%
16:00 +38°C° 0 mm 7 mps 748 mmHg 57%
17:00 +36°C° 0 mm 6 mps 748 mmHg 61%
18:00 +35°C° 0 mm 6 mps 748 mmHg 66%
19:00 +34°C° 0 mm 5 mps 748 mmHg 70%
20:00 +34°C° 0 mm 5 mps 749 mmHg 72%
21:00 +34°C° 0 mm 6 mps 750 mmHg 73%
22:00 +33°C° 0 mm 6 mps 750 mmHg 75%
23:00 +33°C° 0 mm 6 mps 750 mmHg 74%

9 July, Thursday

Time Temperature Precipitation Wind Pressure Humidity
00:00 +33°C° 0 mm 7 mps 750 mmHg 73%
01:00 +33°C° 0 mm 7 mps 749 mmHg 72%
02:00 +33°C° 0 mm 7 mps 749 mmHg 73%
03:00 +33°C° 0 mm 6 mps 749 mmHg 73%
04:00 +33°C° 0 mm 6 mps 748 mmHg 73%
05:00 +33°C° 0 mm 6 mps 748 mmHg 71%
06:00 +33°C° 0 mm 6 mps 749 mmHg 69%
07:00 +34°C° 0 mm 5 mps 749 mmHg 67%
08:00 +35°C° 0 mm 6 mps 749 mmHg 64%
09:00 +36°C° 0 mm 6 mps 749 mmHg 60%
10:00 +38°C° 0 mm 6 mps 749 mmHg 56%
11:00 +38°C° 0 mm 6 mps 748 mmHg 54%
12:00 +39°C° 0 mm 6 mps 748 mmHg 52%
13:00 +40°C° 0 mm 6 mps 747 mmHg 49%
14:00 +39°C° 0 mm 6 mps 747 mmHg 51%
15:00 +39°C° 0 mm 6 mps 746 mmHg 53%
16:00 +38°C° 0 mm 7 mps 746 mmHg 55%
17:00 +36°C° 0.2 mm 6 mps 746 mmHg 60%
18:00 +35°C° 0.2 mm 5 mps 747 mmHg 65%
19:00 +34°C° 0.2 mm 4 mps 747 mmHg 70%
20:00 +33°C° 0.5 mm 4 mps 748 mmHg 72%
21:00 +31°C° 0.5 mm 3 mps 748 mmHg 74%
22:00 +31°C° 0.5 mm 2 mps 749 mmHg 75%
23:00 +31°C° 0 mm 3 mps 749 mmHg 74%

10 July, Friday

Time Temperature Precipitation Wind Pressure Humidity
00:00 +32°C° 0 mm 4 mps 748 mmHg 72%
01:00 +33°C° 0 mm 5 mps 748 mmHg 71%
02:00 +33°C° 0 mm 5 mps 748 mmHg 71%
03:00 +32°C° 0 mm 5 mps 748 mmHg 72%
04:00 +32°C° 0 mm 5 mps 748 mmHg 72%
05:00 +32°C° 0 mm 5 mps 748 mmHg 72%
06:00 +32°C° 0 mm 5 mps 749 mmHg 72%
07:00 +32°C° 0 mm 5 mps 749 mmHg 72%
08:00 +33°C° 0.1 mm 5 mps 749 mmHg 69%
09:00 +34°C° 0.1 mm 6 mps 750 mmHg 66%
10:00 +35°C° 0.1 mm 6 mps 750 mmHg 63%
11:00 +35°C° 0 mm 6 mps 750 mmHg 59%
12:00 +36°C° 0 mm 6 mps 749 mmHg 56%
13:00 +38°C° 0 mm 6 mps 749 mmHg 53%
14:00 +37°C° 0 mm 5 mps 749 mmHg 53%
15:00 +37°C° 0 mm 5 mps 748 mmHg 54%
16:00 +37°C° 0 mm 4 mps 748 mmHg 54%
17:00 +36°C° 0.1 mm 4 mps 748 mmHg 61%
18:00 +34°C° 0.1 mm 4 mps 748 mmHg 67%
19:00 +33°C° 0.1 mm 3 mps 748 mmHg 73%
20:00 +33°C° 0.9 mm 4 mps 749 mmHg 74%
21:00 +33°C° 0.9 mm 4 mps 749 mmHg 75%
22:00 +33°C° 0.9 mm 5 mps 750 mmHg 77%
23:00 +33°C° 0.2 mm 5 mps 750 mmHg 74%
Show more